Showing default

GREGOIRE, 56946

Orbit data source: Space-Track

GREGOIRE, 56946 is a payload satellite owned by Aerospacelab (BE) in SSO that was launched on Mon, 12 Jun 2023 UTC via an FALCON 9 launch vehicle from the Air Force Western Test Range (AFWTR). Payload-class satellites include a variety of spacecraft equipped with specific instruments for various scientific and technological missions. These include communications satellites like Starlink; space stations such as the ISS; scientific satellites like the Hubble; Earth observation satellites from companies like Planet Labs, Umbra, and HawkEye 360; GPS; miniature CubeSats for education and research; and military/defense satellites.

Loading next visibility...
Identifier
56946, 2023-084Q
Orbit
SSO
Country
Flag of BEBE / BEL
Related business
Manufacturer
Aerospacelab
Mission
Operational Commercial Imaging
Bus & Motor
VSP, Unknown motor
Mass
100 kg wet, 100 kg dry
Launch date (UTC)
2023-06-12 (3 years ago)
Launch vehicle
FALCON 9
Launch site
Air Force Western Test Range (AFWTR)
Object type
Payload
Rocket body
Debris
Shape & HBR
Box + 2 Pan, 1.0 m
Radar Cross Section
0.963 m², Medium (>0.1 m² and < 1m²)

Expand to show TLE details & history
Last TLE update: 1 day ago

TLE from 1 day ago
0 GREGOIRE
1 56946U 23084Q   26062.35500772  .00011513  00000-0  33404-3 0  9990
2 56946  97.6064 202.4273 0006663 344.3630  15.7406 15.35668126151450
Epoch: 2026-03-03T08:31Z
TLE epoch observation values (Epoch: 2026-03-03T08:31:12.667Z)
Latitude
-0.00001°
Longitude
-86.51074°
Altitude
457.657 km
Speed
7.64 km/s
True Right ascension
13h 29m 42s
True Declination
0° 00' 00"
Sunlit
Object was in full shadow at epoch
Visualization orbit readout
Latitude
Unknown
Longitude
Unknown
Altitude
Unknown
Speed
Unknown
Apparent Right ascension
Unknown
Apparent Declination
Unknown
Sunlit
N/A
Visualization observer readout
Local Sidereal Time
13:46:03
Azimuth
Unknown
Elevation
Unknown
Doppler factor
Unknown
Orbital elements
Apogee altitude
460.444 km
Perigee altitude
451.337 km
Semi-major axis
6,834.027 km
Eccentricity
0.00067
Inclination
97.6064°
RAAN
202.4273°
Arg. of periapsis
344.363°
True anomaly
15.76133°
Mean anomaly
15.7406°
Eccentric anomaly
15.75096°
Mean motion
3.84174 °/min
Orbital period
93.71 mins
BSTAR
0.00033404
Loading maneuver chart data...
Computing Atmospheric mass density...
Loading historical data...
Loading historical data...
Loading historical data...
Loading historical data...
Loading historical data...
Loading historical data...
Loading historical data...

Documentation

Showing up to 5 results
|